GSAT 16

导读

GSAT 16是印度空间研究组织(ISRO)研制的先进通信卫星,于2014年12月6日由阿丽亚娜5号火箭在法属圭亚那库鲁航天发射中心成功发射,发射质量约3181.6公斤,由阿丽亚娜航天公司负责发射运营。该卫星主要用于满足印度本土通信服务需求,提升区域通信网络覆盖与传输能力,是印度自主通信卫星星座建设中的重要节点,助力印度空间通信基础设施的发展。

基本信息
目录编号:
40332
目录名称:
GSAT 16
国际标识:
2014-078A
轨道中心:
EARTH
卫星名称:
GSAT 16
卫星全名:
--
卫星状态:
在轨 (已飞行4215 天)
发射日期:
2014-12-06 UTC
国别 :
印度 (IN)
星等 :
--
轨道信息
数据来源 国际轨道数据 AOE轨道数据
星历时间 2026-06-20T12:32:10+0800
1天前
查看轨道信息
2026-06-21T10:00:00+0800
6小时前
查看轨道信息
半长轴 42165.261km 42165.794km
偏心率 0.0007757 0.0007587
轨道倾角 0.046° 0.047°
近地点辐角 358.979° 354.079°
升交点赤经 88.276° 90.002°
平近点角 304.246° 270.252°
近地点 35754.416km 35755.665km
远地点 35819.832km 35819.649km
周期 1436.124分钟 1436.151分钟
每日圈数 1.002699 1.00268
详细信息
使用方式:
暂无
2D轨道图
3D轨道图
轨道高度分析图
轨道倾角分析图
轨道综合分析图
查看轨道综合分析图